DW0529 Weather Reports


Display with metric or nautical units.
time (UTC)temp
F
wind
direction
speed
MPH
gust
MPH
rain 1hr
in
rain 24hr
in
rain mn
in
humidity
%
barometer
mb
20260505083916 53 333 0.0 2.0 0.00 0.00 0.00 77 969.2
20260505082855 53 332 0.0 2.0 0.00 0.00 0.00 78 969.3
20260505081904 53 331 0.0 3.0 0.00 0.00 0.00 77 969.3
20260505075729 53 323 0.0 0.0 0.00 0.00 0.00 79 969.4
20260505074709 54 328 0.0 2.0 0.00 0.00 0.00 80 969.5
20260505073730 54 333 0.0 3.0 0.00 0.00 0.00 82 969.5
20260505072722 54 333 1.0 3.0 0.00 0.00 0.00 82 969.6
20260505071733 54 332 0.0 3.0 0.00 0.00 0.00 83 969.6
20260505070712 54 332 1.0 3.0 0.00 0.00 0.00 84 969.6
20260505065734 53 187 0.0 0.0 0.00 0.00 0.00 86 969.6
20260505064736 53 187 0.0 0.0 0.00 0.00 0.00 88 969.7
20260505063737 53 187 0.0 0.0 0.00 0.00 0.00 91 969.6
20260505061649 53 187 0.0 0.0 0.00 0.00 0.00 92 969.6
20260505060657 53 187 0.0 0.0 0.00 0.00 0.00 91 969.6
20260505055704 53 187 0.0 0.0 0.00 0.00 0.00 91 969.6
20260505054655 53 187 0.0 0.0 0.00 0.00 0.00 91 969.7
20260505052627 53 187 0.0 0.0 0.00 0.00 0.00 90 969.8
20260505051641 53 187 0.0 0.0 0.00 0.00 0.00 90 969.8
20260505041244 54 216 0.0 3.0 0.00 0.00 0.00 88 970.0
20260505040227 54 209 0.0 0.0 0.00 0.00 0.00 88 969.9
20260505032917 54 182 1.0 4.0 0.00 0.00 0.00 85 969.7
20260505031855 54 201 0.0 4.0 0.00 0.00 0.00 83 969.5
20260505030850 54 214 0.0 1.0 0.00 0.00 0.00 82 969.5
20260505025904 55 214 0.0 2.0 0.00 0.00 0.00 81 969.5
20260505023704 55 178 0.0 5.0 0.00 0.00 0.00 77 969.3
20260505022638 55 171 1.0 5.0 0.00 0.00 0.00 76 969.2
20260505021648 56 211 1.0 5.0 0.00 0.00 0.00 76 969.3
20260505020631 56 232 1.0 7.0 0.00 0.00 0.00 76 969.1
20260505015559 56 201 1.0 7.0 0.00 0.00 0.00 74 969.0
20260505014609 57 200 1.0 6.0 0.00 0.00 0.00 73 969.1
20260505013554 58 213 1.0 6.0 0.00 0.00 0.00 69 969.1
20260505012557 58 207 1.0 6.0 0.00 0.00 0.00 68 969.2
20260505011532 58 223 1.0 6.0 0.00 0.00 0.00 69 969.3
20260505010553 58 236 2.0 11.0 0.00 0.00 0.00 70 969.5
20260505005552 58 225 3.0 11.0 0.00 0.00 0.00 70 969.4
20260505004526 58 184 1.0 9.0 0.00 0.00 0.00 71 969.4
20260505002338 59 180 2.0 7.0 0.00 0.00 0.00 68 969.4
20260505001359 59 234 2.0 9.0 0.00 0.00 0.00 67 969.3
20260505000406 59 175 3.0 9.0 0.00 0.00 0.00 67 969.3
20260504235344 60 219 2.0 8.0 0.00 0.00 0.00 66 969.3
20260504234358 60 184 2.0 7.0 0.00 0.00 0.00 66 969.1
20260504233327 61 205 2.0 6.0 0.00 0.00 0.00 66 969.2
20260504232332 60 163 1.0 9.0 0.00 0.00 0.00 66 969.1
20260504231335 60 190 2.0 9.0 0.00 0.00 0.00 67 969.2
20260504230324 60 192 1.0 8.0 0.00 0.00 0.00 67 969.4
20260504225319 60 225 2.0 11.0 0.00 0.00 0.00 68 969.5
20260504222044 60 211 4.0 11.0 0.00 0.00 0.00 67 969.8
20260504221022 60 190 3.0 17.0 0.00 0.00 0.00 67 969.9
20260504215957 60 234 4.0 17.0 0.00 0.00 0.00 66 970.1
20260504213819 59 174 3.0 14.0 0.00 0.00 0.00 66 970.5
20260504212827 60 261 3.0 14.0 0.00 0.00 0.00 64 970.3
20260504211841 60 224 4.0 13.0 0.00 0.00 0.00 66 970.4
20260504210842 60 184 3.0 11.0 0.00 0.00 0.00 64 970.5
20260504203523 62 176 3.0 11.0 0.00 0.00 0.00 57 970.4
20260504202547 62 205 3.0 11.0 0.00 0.00 0.00 56 970.2
20260504201547 62 227 3.0 14.0 0.00 0.00 0.00 56 970.2
20260504194356 61 279 2.0 15.0 0.00 0.00 0.00 58 970.3
20260504193406 60 234 3.0 15.0 0.00 0.00 0.00 61 970.3
20260504192336 60 200 3.0 8.0 0.00 0.00 0.00 62 970.5
20260504190232 61 219 1.0 8.0 0.00 0.00 0.00 60 970.5
20260504184143 60 232 2.0 8.0 0.00 0.00 0.00 62 970.6
20260504182049 58 189 0.0 4.0 0.00 0.00 0.00 66 970.7
20260504181027 57 190 0.0 4.0 0.00 0.00 0.00 67 970.8
20260504175955 57 204 1.0 5.0 0.00 0.00 0.00 69 970.8
20260504175000 57 186 1.0 5.0 0.00 0.00 0.00 70 970.7
20260504174016 58 209 0.0 5.0 0.00 0.00 0.00 70 970.7
20260504173016 58 150 0.0 4.0 0.00 0.00 0.00 70 970.5
20260504172002 59 191 0.0 2.0 0.00 0.00 0.00 69 970.4
20260504171011 59 175 0.0 3.0 0.00 0.00 0.00 68 970.3
20260504140540 53 221 0.0 0.0 0.00 0.00 0.00 87 969.6
20260504130533 53 225 0.0 0.0 0.00 0.00 0.00 85 969.4
20260504110236 53 225 0.0 0.0 0.00 0.00 0.00 83 969.3
20260504100110 53 225 0.0 0.0 0.00 0.00 0.00 83 969.1